| time (UTC) | temp F | wind direction | speed MPH | gust MPH | rain 1hr in | rain 24hr in | rain mn in | humidity % | barometer mb |
| 20260502163005 | 41 | 246 | 14.0 | 19.0 | 0.00 | 0.00 | 0.00 | 70 | 1017.4 |
| 20260502161504 | 41 | 249 | 14.0 | 18.0 | 0.00 | 0.00 | 0.00 | 73 | 1017.5 |
| 20260502151612 | 40 | 254 | 13.0 | 17.0 | 0.00 | 0.00 | 0.00 | 70 | 1017.8 |
| 20260502123001 | 36 | 250 | 0.0 | 7.0 | 0.00 | 0.00 | 0.00 | 86 | 1018.4 |
| 20260502121558 | 34 | 240 | 2.0 | 6.0 | 0.00 | 0.00 | 0.00 | 89 | 1018.5 |
| 20260502114552 | 33 | 259 | 2.0 | 6.0 | 0.00 | 0.00 | 0.00 | 92 | 1018.5 |
| 20260502113053 | 32 | 239 | 3.0 | 6.0 | 0.00 | 0.00 | 0.00 | 92 | 1018.4 |
| 20260502111546 | 28 | 255 | 0.0 | 2.0 | 0.00 | 0.00 | 0.00 | 92 | 1018.4 |
| 20260502110048 | 27 | 146 | 0.0 | 0.0 | 0.00 | 0.00 | 0.00 | 92 | 1018.3 |
| 20260502104545 | 28 | 185 | 0.0 | 1.0 | 0.00 | 0.00 | 0.00 | 90 | 1018.3 |
| 20260502103043 | 30 | 255 | 2.0 | 4.0 | 0.00 | 0.00 | 0.00 | 87 | 1018.3 |
| 20260502101559 | 25 | 247 | 0.0 | 3.0 | 0.00 | 0.00 | 0.00 | 92 | 1018.3 |
| 20260502071532 | 26 | 109 | 0.0 | 0.0 | 0.00 | 0.00 | 0.00 | 91 | 1017.9 |
| 20260502070052 | 27 | 109 | 0.0 | 0.0 | 0.00 | 0.00 | 0.00 | 91 | 1018.0 |
| 20260502064529 | 27 | 109 | 0.0 | 0.0 | 0.00 | 0.00 | 0.00 | 91 | 1018.1 |
| 20260502063032 | 27 | 110 | 0.0 | 0.0 | 0.00 | 0.00 | 0.00 | 91 | 1018.0 |
| 20260502061527 | 28 | 113 | 0.0 | 0.0 | 0.00 | 0.00 | 0.00 | 90 | 1018.1 |
| 20260502060036 | 27 | 113 | 0.0 | 0.0 | 0.00 | 0.00 | 0.00 | 91 | 1018.1 |
| 20260502054539 | 27 | 110 | 0.0 | 0.0 | 0.00 | 0.00 | 0.00 | 91 | 1018.2 |
| 20260502053024 | 28 | 110 | 0.0 | 0.0 | 0.00 | 0.00 | 0.00 | 90 | 1018.0 |
| 20260502051522 | 28 | 110 | 0.0 | 0.0 | 0.00 | 0.00 | 0.00 | 90 | 1018.1 |
| 20260502050023 | 29 | 110 | 0.0 | 0.0 | 0.00 | 0.00 | 0.00 | 90 | 1018.0 |
| 20260502044518 | 29 | 110 | 0.0 | 0.0 | 0.00 | 0.00 | 0.00 | 90 | 1017.9 |
| 20260502043017 | 29 | 110 | 0.0 | 0.0 | 0.00 | 0.00 | 0.00 | 89 | 1017.9 |
| 20260502041527 | 29 | 110 | 0.0 | 0.0 | 0.00 | 0.00 | 0.00 | 88 | 1017.9 |
| 20260502040021 | 31 | 110 | 0.0 | 0.0 | 0.00 | 0.00 | 0.00 | 87 | 1018.1 |
| 20260502034509 | 32 | 155 | 0.0 | 0.0 | 0.00 | 0.00 | 0.00 | 86 | 1018.0 |
| 20260502033011 | 33 | 213 | 0.0 | 0.0 | 0.00 | 0.00 | 0.00 | 84 | 1018.1 |
| 20260502031507 | 34 | 213 | 0.0 | 0.0 | 0.00 | 0.00 | 0.00 | 84 | 1018.0 |
| 20260502030007 | 35 | 201 | 0.0 | 0.0 | 0.00 | 0.00 | 0.00 | 83 | 1018.1 |
| 20260502024506 | 35 | 218 | 0.0 | 1.0 | 0.00 | 0.00 | 0.00 | 82 | 1018.1 |
| 20260502023017 | 36 | 214 | 0.0 | 0.0 | 0.00 | 0.00 | 0.00 | 82 | 1018.1 |
| 20260502021506 | 36 | 240 | 0.0 | 1.0 | 0.00 | 0.00 | 0.00 | 81 | 1018.2 |
| 20260502020004 | 37 | 245 | 0.0 | 2.0 | 0.00 | 0.00 | 0.00 | 80 | 1018.2 |
| 20260502014502 | 37 | 250 | 1.0 | 3.0 | 0.00 | 0.00 | 0.00 | 79 | 1018.0 |
| 20260502013002 | 38 | 241 | 0.0 | 4.0 | 0.00 | 0.00 | 0.00 | 80 | 1018.0 |
| 20260502011613 | 38 | 245 | 2.0 | 6.0 | 0.00 | 0.00 | 0.00 | 78 | 1017.8 |
| 20260502010100 | 38 | 255 | 4.0 | 8.0 | 0.00 | 0.00 | 0.00 | 80 | 1017.7 |
| 20260502004557 | 38 | 257 | 4.0 | 8.0 | 0.00 | 0.00 | 0.00 | 84 | 1017.6 |
| 20260502003056 | 38 | 268 | 5.0 | 11.0 | 0.00 | 0.00 | 0.00 | 82 | 1017.6 |
| 20260502001601 | 38 | 259 | 7.0 | 11.0 | 0.00 | 0.00 | 0.00 | 82 | 1017.4 |
| 20260502000106 | 38 | 254 | 8.0 | 10.0 | 0.00 | 0.00 | 0.00 | 82 | 1017.3 |
| 20260501234551 | 38 | 244 | 8.0 | 13.0 | 0.00 | 0.00 | 0.00 | 82 | 1017.2 |
| 20260501233104 | 39 | 253 | 8.0 | 13.0 | 0.00 | 0.00 | 0.00 | 83 | 1017.2 |
| 20260501231607 | 39 | 254 | 9.0 | 12.0 | 0.00 | 0.00 | 0.00 | 79 | 1017.1 |
| 20260501230114 | 39 | 251 | 11.0 | 14.0 | 0.00 | 0.00 | 0.00 | 80 | 1017.0 |
| 20260501224556 | 40 | 241 | 8.0 | 14.0 | 0.00 | 0.00 | 0.00 | 77 | 1017.0 |
| 20260501223053 | 40 | 249 | 12.0 | 15.0 | 0.00 | 0.00 | 0.00 | 79 | 1017.0 |
| 20260501221549 | 40 | 257 | 10.0 | 14.0 | 0.00 | 0.00 | 0.00 | 72 | 1016.9 |
| 20260501220044 | 40 | 238 | 6.0 | 12.0 | 0.00 | 0.00 | 0.00 | 71 | 1016.7 |
| 20260501214642 | 41 | 264 | 3.0 | 10.0 | 0.00 | 0.00 | 0.00 | 73 | 1016.5 |
| 20260501213041 | 41 | 249 | 1.0 | 13.0 | 0.00 | 0.00 | 0.00 | 71 | 1016.5 |
| 20260501211540 | 41 | 240 | 6.0 | 13.0 | 0.00 | 0.00 | 0.00 | 67 | 1016.3 |
| 20260501210040 | 43 | 228 | 0.0 | 8.0 | 0.00 | 0.00 | 0.00 | 59 | 1016.3 |
| 20260501204543 | 41 | 242 | 9.0 | 14.0 | 0.00 | 0.00 | 0.00 | 78 | 1016.0 |
| 20260501203039 | 42 | 252 | 1.0 | 17.0 | 0.00 | 0.00 | 0.00 | 72 | 1016.0 |
| 20260501201541 | 43 | 226 | 1.0 | 5.0 | 0.00 | 0.00 | 0.00 | 55 | 1016.1 |
| 20260501200038 | 43 | 244 | 4.0 | 8.0 | 0.00 | 0.00 | 0.00 | 66 | 1016.0 |
| 20260501194536 | 45 | 304 | 0.0 | 1.0 | 0.00 | 0.00 | 0.00 | 54 | 1016.0 |
| 20260501193037 | 44 | 165 | 0.0 | 2.0 | 0.00 | 0.00 | 0.00 | 58 | 1016.0 |
| 20260501191533 | 44 | 41 | 0.0 | 2.0 | 0.00 | 0.00 | 0.00 | 61 | 1016.0 |
| 20260501190029 | 41 | 261 | 8.0 | 15.0 | 0.00 | 0.00 | 0.00 | 75 | 1015.8 |
| 20260501184528 | 40 | 236 | 8.0 | 14.0 | 0.00 | 0.00 | 0.00 | 84 | 1015.8 |
| 20260501183025 | 39 | 242 | 12.0 | 15.0 | 0.00 | 0.00 | 0.00 | 85 | 1015.9 |
| 20260501181524 | 39 | 248 | 11.0 | 14.0 | 0.00 | 0.00 | 0.00 | 79 | 1016.0 |
| 20260501180023 | 39 | 250 | 12.0 | 15.0 | 0.00 | 0.00 | 0.00 | 75 | 1015.9 |
| 20260501174522 | 38 | 251 | 9.0 | 15.0 | 0.00 | 0.00 | 0.00 | 79 | 1016.0 |
| 20260501173024 | 39 | 257 | 9.0 | 13.0 | 0.00 | 0.00 | 0.00 | 80 | 1016.0 |